MDT,Max TemperatureF,Mean TemperatureF,Min TemperatureF,Max Dew PointF,MeanDew PointF,Min DewpointF,Max Humidity, Mean Humidity, Min Humidity, Max Sea Level PressureIn, Mean Sea Level PressureIn, Min Sea Level PressureIn, Max VisibilityMiles, Mean VisibilityMiles, Min VisibilityMiles, Max Wind SpeedMPH, Mean Wind SpeedMPH, Max Gust SpeedMPH,PrecipitationIn, CloudCover, Events, WindDirDegrees
2012-9-1,88,73,58,51,47,40,67,44,21,30.30,30.01,29.88,10,10,5,38,8,47,T,2,Rain-Thunderstorm,189
2012-9-2,83,69,55,52,48,44,77,52,26,30.07,30.02,29.98,10,10,10,12,5,15,0.01,0,,121
2012-9-3,86,71,56,52,44,34,77,47,17,30.08,30.01,29.95,10,10,10,14,6,17,0.00,0,,132
2012-9-4,87,70,53,44,38,30,64,39,14,30.08,30.00,29.91,10,10,8,13,6,16,0.00,0,,123
2012-9-5,87,70,52,38,28,16,45,26,7,30.08,29.99,29.91,10,10,10,15,7,18,0.00,0,,138
2012-9-6,89,70,50,42,31,25,44,28,11,30.04,29.93,29.86,10,10,10,33,6,41,0.05,1,Thunderstorm,121
2012-9-7,82,68,54,56,49,34,84,51,17,30.25,30.07,29.99,10,10,2,14,5,16,0.02,3,Rain-Thunderstorm,166
2012-9-8,82,65,48,41,34,22,66,39,11,30.22,30.12,30.04,10,10,10,14,7,16,0.00,0,,125
2012-9-9,85,68,50,44,37,30,61,38,15,30.18,30.06,29.95,10,10,10,14,6,15,0.00,0,,119
2012-9-10,86,71,56,48,42,34,61,39,17,30.24,29.94,29.83,10,10,2,12,5,14,0.00,1,,145
2012-9-11,79,69,58,59,52,41,93,65,36,30.16,29.98,29.85,10,10,2,23,6,26,0.13,6,Rain-Thunderstorm,128
2012-9-12,74,64,54,57,54,42,100,67,33,30.25,30.09,29.97,10,9,4,18,5,23,0.06,5,Rain,17
2012-9-13,77,62,46,48,42,30,93,56,19,30.31,30.24,30.15,10,10,10,13,7,15,0.00,0,,93
2012-9-14,81,63,45,39,35,26,71,43,14,30.35,30.23,30.12,10,10,10,14,6,17,0.00,0,,147
2012-9-15,83,65,46,37,32,20,66,38,10,30.23,30.13,30.04,10,10,10,14,7,16,0.00,0,,136
2012-9-16,84,65,46,36,28,19,50,30,10,30.12,30.02,29.93,10,10,10,14,7,16,0.00,0,,121
2012-9-17,76,63,49,39,31,26,50,33,16,30.21,30.00,29.89,10,10,2,21,7,29,T,0,Rain,127
2012-9-18,81,62,43,35,31,25,67,40,13,30.19,30.09,30.03,10,10,9,13,7,16,0.00,0,,134
2012-9-19,81,63,44,33,28,18,58,34,9,30.17,30.09,30.01,10,10,10,13,6,14,0.00,0,,136
2012-9-20,83,64,44,31,26,17,49,29,9,30.14,30.06,29.98,10,10,10,13,6,16,0.00,0,,136
2012-9-21,82,63,43,34,27,17,49,29,9,30.16,30.05,29.97,10,10,10,13,7,16,0.00,0,,128
2012-9-22,85,65,45,33,28,21,53,32,10,30.17,30.07,29.99,10,10,10,14,7,16,0.00,0,,139
2012-9-23,82,66,49,40,32,24,46,31,15,30.26,30.07,30.01,10,10,10,18,7,23,T,1,,151
2012-9-24,73,63,53,51,45,35,83,57,31,30.18,30.04,29.90,10,9,2,36,8,46,0.18,5,Rain-Thunderstorm,146
2012-9-25,62,54,45,50,47,42,93,72,51,30.10,29.97,29.92,10,10,10,17,7,21,0.07,4,Rain,132
2012-9-26,55,47,39,49,44,38,100,86,71,30.20,30.10,30.02,10,10,7,14,4,17,0.29,4,Rain-Thunderstorm,137
2012-9-27,65,54,43,49,45,43,100,72,44,30.20,30.15,30.10,10,10,10,10,3,13,0.01,3,Rain,155
2012-9-28,73,57,41,44,40,33,93,60,27,30.18,30.09,29.99,10,10,10,10,6,13,0.00,0,,137
2012-9-29,76,59,42,41,38,30,83,51,19,30.16,30.08,30.00,10,10,10,13,6,16,0.00,0,,154
2012-9-30,75,60,45,39,36,30,71,45,19,30.19,30.11,30.05,10,10,10,24,7,26,0.00,0,,165